Location: Arborea
(39.7744°N, 8.5819°E)
Time: 08:17:40
(UTC+00:00)

Cosmos 1980 Rocket - Pass Details

Date: 24 October 2021
Orbit: 828 x 851 km, 71.0° (Epoch: 02 December)

Event Time Altitude Azimuth Distance (km) Brightness Sun altitude
Rises 16:51:18 0° 220° (SW) 3,379 6.3 -4.1°
Reaches altitude 10° 16:53:50 10° 226° (SW) 2,452 5.7 -4.6°
Maximum altitude 16:59:12 44° 299° (WNW) 1,148 3.4 -5.6°
Drops below altitude 10° 17:04:38 10° 11° (N) 2,479 4.4 -6.7°
Sets 17:07:13 0° 18° (NNE) 3,421 5.1 -7.2°
